Regional Weather Roundup
Issued by NWS

Home | Current Version | Previous Version | Text Only | Print | Product List | Glossary On
Versions: 1 2 3 4 5 6 7 8 9 10 11 12 13 14 15 16 17 18 19 20 21 22 23 24 25 26 27 28 29 30 31 32 33 34 35 36 37 38 39 40 41 42 43 44 45 46 47 48 49 50
000
ASPQ40 PGUM 240012
RWRPQ
WEATHER ROUNDUP FOR THE MARIANAS AND MICRONESIA
NATIONAL WEATHER SERVICE TIYAN GU
1000 AM CHST WED MAY 24 2017

GUZ001>004-240100-
MARIANA ISLANDS-

CITY           SKY/WX    TMP DP  RH WIND       PRES   REMARKS
GUAM AIRPORT   MOSUNNY   86  75  70 E13G18    29.90S HX  95
ANDERSEN AFB   MOSUNNY   86  75  70 SE14      29.91S HX  95
ROTA AIRPORT   PTSUNNY   82  73  74 S21       29.89S
TINIAN AP      MOSUNNY   86  73  66 E12       29.87S HX  93
SAIPAN AP      MOSUNNY   88  75  66 E12       29.88F HX  97

$$

PMZ161-240100-
REPUBLIC OF PALAU-

CITY           SKY/WX    TMP DP  RH WIND       PRES   REMARKS
KOROR AP       PTSUNNY   82  77  83 S5        29.84R HX  91
KOROR WSO      PTSUNNY   84  79  84 CALM      29.85R HX  96

$$

PMZ171>174-240100-
FEDERATED STATES OF MICRONESIA-

CITY           SKY/WX    TMP DP  RH WIND       PRES   REMARKS
YAP AIRPORT    PTSUNNY   86  79  79 SE8       29.84S HX  99
CHUUK AP       PTSUNNY   88  84  89 VRB6      29.84F HX 112
POHNPEI AP     CLOUDY    88  77  70 E6        29.83S HX 100
POHNPEI WSO    NOT AVBL
KOSRAE AP      CLOUDY    81  75  83 SE6       29.84F

$$

PMZ181-240100-
REPUBLIC OF THE MARSHALL ISLANDS-

CITY           SKY/WX    TMP DP  RH WIND       PRES   REMARKS
KWAJALEIN AP   MOSUNNY   88  73  62 E17       29.86F HX  96
MAJURO AP      PTSUNNY   84  77  79 E20       29.84F HX  94
MAJURO WSO     CLOUDY    88  77  70 E14       29.83F HX 100

$$




USA.gov is the U.S. government's official web portal to all federal, state and local government web resources and services.